Torna al catalogo

ONEWEB-0244

AttivoComunicazioniPO
NORAD 48776·PAYLOAD·🇬🇧 United Kingdom

Lanciato May 28, 2021 da Vostochny Cosmodrome

Loading…

Prossimi Passaggi (prossime 24 ore)

TLE

AggiornatoSource: CelesTrak SupGP

Epoca: Sep 14, 2026, 11:07 UTC

1 48776C 21045K   26257.46333333 -.00012640  00000+0 -33616-1 0  2575
2 48776  87.8988 241.3896 0002114  83.3509  18.6800 13.15564685    19

Traccia ONEWEB-0244 in tempo reale con AllMySat

Download on the App Store